Regional Weather Roundup
Issued by NWS

Home | Current Version | Previous Version | Graphics & Text | Print | Product List | Glossary On
Versions: 1 2 3 4 5 6 7 8 9 10 11 12 13 14 15 16 17 18 19 20 21 22 23 24 25 26 27 28 29 30 31 32 33 34 35 36 37 38 39 40 41 42 43 44 45 46 47 48 49 50
000
ASUS45 KSLC 242310
RWRUT

UTAH REGIONAL WEATHER ROUNDUP
NATIONAL WEATHER SERVICE SALT LAKE CITY UT
500 PM MDT WED AUG 24 2016

UTZ001>011-023>025-250000-

NORTHERN UTAH

CITY           SKY/WX    TMP DP  RH WIND       PRES   REMARKS
BRIGHAM CITY     N/A     79  12   7 S7        30.11F
HILL AFB       NOT AVBL
LOGAN          SUNNY     80  24  12 W9        30.10F
OGDEN          MOSUNNY   78  24  13 W6        30.12F
PROVO AIRPORT  MOSUNNY   82  30  15 W15       30.10S
SALT LAKE CITY PTSUNNY   82  18   9 N14       30.11S
VERNAL         SUNNY     82  31  15 E9        30.05F
WENDOVER       SUNNY     82  23  11 SE8       30.08F
HEBER CITY     MOSUNNY   81  23  12 W16       30.12F
WEST JORDAN    MOSUNNY   78  27  15 NW15      30.13S

$$

UTZ012>022-026-027-250000-

SOUTHERN/CENTRAL UTAH

CITY           SKY/WX    TMP DP  RH WIND       PRES   REMARKS
BLANDING       PTSUNNY   76  42  29 SW6       30.24F
BRYCE CANYON   CLOUDY    72  34  24 NW12G23   30.30F
CEDAR CITY     PTSUNNY   77  40  26 NE14      30.14S
DELTA          SUNNY     82  21  10 NW5       30.09F
MILFORD        MOSUNNY   84  38  19 SE14      30.09F
MOAB/CYNLANDS  PTSUNNY   83  40  21 W10       30.03F
PRICE          SUNNY     83  22  10 W20G28    30.12R
ST GEORGE      PTCLDY    95  45  17 W15       29.96F HX  91

$$

REGIONAL REPORTS     COLORADO/ARIZONA

CITY           SKY/WX    TMP DP  RH WIND       PRES   REMARKS
CRAIG, CO      CLOUDY    81  23  11 NW7       30.13F
GRAND JUNCTION CLOUDY    86  37  17 E7        30.06F
RIFLE          CLOUDY    74  38  27 S6        30.13F
MONTROSE       CLOUDY    78  33  19 VRB3      30.16F
CORTEZ         CLOUDY    76  47  35 N7        30.18S
PAGE, AZ       CLOUDY    81  42  25 N15G28    30.08R
GRAND CANYON   MOSUNNY   78  38  23 N7        30.25F
KINGMAN        SUNNY     93  44  18 SW9       30.04F
FLAGSTAFF      PTSUNNY   68  45  43 S10       30.29S

$$

REGIONAL REPORTS    NEVADA/IDAHO/WYOMING

CITY           SKY/WX    TMP DP  RH WIND       PRES   REMARKS
LAS VEGAS, NV  MOSUNNY  101  38  11 VRB6      29.86F HX  95
ELY            SUNNY     81  14   8 N8G23     30.17F
ELKO           SUNNY     83   7   5 W10G25    30.13F
POCATELLO, ID  SUNNY     76  28  17 NW8       30.14F
EVANSTON, WY   CLOUDY    71   7   8 W18G29    30.24S
ROCK SPRINGS   NOT AVBL

$$



USA.gov is the U.S. government's official web portal to all federal, state and local government web resources and services.